Wind_Speed
17 17 16 16 16 15 15 15 15 16 17 16 15 14 14 14 12 10 9 9 9 9 8 8 9 8 8 8 8 9 9 9 10 10 10 11 12 12 12 12 11 10 10 11 11 12 13 14 14 14 14 14 14 15 14 14 14 14 15 15 15 15 14 14 14 14 14 13 13 13 13 13 13 14 14 15 15 15 15 15 15 15 15 15 14
17 17 17 17 17 16 16 16 15 16 17 16 15 14 14 14 12 12 12 10 10 9 7 8 8 8 8 8 9 9 9 9 10 10 11 11 12 12 13 14 13 12 12 11 11 12 12 13 14 14 14 14 14 14 14 14 14 14 14 14 14 14 14 14 14 13 13 13 13 13 14 14 14 15 15 15 15 15 15 15 14 14 14 14 14
18 18 17 18 17 17 17 16 15 16 17 16 15 14 14 14 13 13 13 11 11 9 8 8 8 8 8 8 9 9 8 8 9 9 11 11 11 11 11 12 13 13 13 13 12 11 11 12 13 14 14 14 14 14 14 13 13 13 14 14 14 14 14 14 13 13 12 13 13 13 14 15 15 15 16 16 15 15 15 15 15 14 14 14 14
19 18 18 18 18 17 17 16 16 16 16 15 14 14 15 15 14 14 13 12 11 10 9 9 8 8 7 8 8 8 8 8 7 8 10 11 11 11 11 11 12 12 12 12 12 11 11 11 12 13 13 13 14 14 13 13 13 13 13 13 13 13 13 13 13 12 12 12 12 13 14 15 15 16 16 16 15 15 15 15 14 14 13 12 12
20 19 19 18 17 16 15 16 16 16 15 15 14 15 15 16 15 14 13 12 12 10 9 9 8 7 7 8 8 7 7 7 7 8 9 10 10 11 11 11 11 11 11 10 10 10 10 11 12 12 12 13 13 13 13 13 12 12 12 12 12 12 12 12 12 11 11 11 12 13 14 14 15 15 15 14 14 14 14 13 13 11 11 10 10
20 20 19 18 17 16 15 16 16 15 15 14 14 15 16 16 15 13 13 13 13 12 10 9 8 8 7 7 7 7 7 7 7 8 9 10 10 10 10 11 10 10 9 9 8 9 9 10 10 11 11 12 12 13 13 12 12 11 11 11 11 11 11 11 11 11 11 11 12 12 13 13 13 13 12 12 11 11 11 11 10 9 9 8 8
21 20 19 18 17 17 16 16 16 15 15 14 15 15 15 15 14 13 13 14 14 13 11 9 8 8 7 7 7 7 6 6 7 7 9 10 9 9 9 9 9 8 7 7 8 7 7 7 8 9 10 11 11 12 12 11 11 10 10 10 10 10 10 10 10 10 10 10 10 11 11 11 11 10 9 9 9 9 9 9 8 7 6 6 6
22 21 19 18 17 17 17 16 16 15 14 15 14 14 14 14 14 13 13 15 15 14 10 9 9 8 7 7 7 7 6 6 6 7 8 8 8 8 8 8 8 7 7 7 7 6 6 6 6 7 9 9 10 10 10 10 10 9 9 9 9 9 9 9 9 9 9 9 8 8 8 8 8 7 7 7 7 7 6 5 4 3 3 3 3
23 21 18 17 17 18 18 17 17 15 14 14 14 13 14 14 14 13 14 15 15 13 10 8 8 8 7 7 7 6 6 6 6 7 7 6 7 7 7 7 7 7 7 6 7 7 6 6 6 7 8 9 9 10 9 9 9 8 8 8 8 8 8 9 8 8 7 7 6 6 6 5 5 5 5 5 4 3 2 2 2 2 4 5 5
24 21 18 17 17 17 18 19 18 16 14 14 14 13 14 14 14 14 14 15 15 13 10 8 8 8 8 8 7 6 6 6 6 6 6 5 5 5 5 6 6 6 7 7 7 7 7 7 7 7 7 8 9 9 8 8 8 8 7 7 7 6 7 7 7 6 6 5 5 5 4 4 4 3 3 3 3 3 2 3 4 5 6 7 8
24 21 18 18 17 17 19 20 19 17 15 14 14 13 14 15 15 14 14 15 14 12 11 9 9 9 8 8 7 6 6 6 6 7 6 5 5 4 4 5 5 6 6 7 6 6 7 7 7 7 7 7 7 7 7 7 7 7 7 6 6 5 6 5 5 5 5 4 4 3 3 2 2 2 3 3 4 4 5 5 6 7 8 8 9
24 21 19 19 17 16 19 20 18 17 16 15 14 14 14 15 15 15 15 15 14 13 12 10 9 9 8 8 7 7 7 6 7 7 6 6 5 5 4 4 5 6 6 5 5 5 6 7 7 7 7 6 5 5 5 5 5 5 6 6 5 5 5 4 4 3 4 3 3 2 2 2 2 3 4 5 5 6 6 7 7 8 8 9 9
24 21 20 20 17 16 19 20 18 18 17 16 15 14 15 16 16 16 15 15 14 14 13 10 9 9 8 8 8 8 7 7 7 7 6 6 5 4 5 5 5 5 5 5 5 5 6 6 6 6 6 5 5 5 4 4 4 4 4 4 4 4 4 3 3 3 3 2 2 2 2 3 3 4 5 5 6 7 7 8 8 8 9 9 10
24 22 22 21 18 18 20 20 20 19 17 16 16 15 15 16 17 16 15 15 15 15 13 11 10 10 9 9 9 9 8 7 7 7 6 6 6 5 4 5 5 4 5 5 5 5 5 5 6 6 6 5 4 4 3 3 4 4 4 4 3 4 4 3 3 3 2 2 2 2 3 3 4 4 5 5 6 7 7 8 8 8 8 9 9
25 23 23 22 21 21 21 21 20 19 18 17 17 16 16 17 17 17 16 16 16 15 13 12 11 11 10 10 10 9 8 7 7 8 7 6 7 6 5 5 5 5 5 5 5 6 5 5 5 6 7 5 4 3 3 4 4 5 4 4 3 4 4 3 3 2 2 2 2 2 3 3 4 5 5 5 6 6 6 7 7 8 8 8 8
25 23 23 23 22 22 22 21 20 20 19 18 18 17 17 17 17 18 18 17 16 15 13 12 12 12 12 11 10 9 8 8 8 8 8 8 8 8 7 7 7 6 6 6 7 6 6 5 5 6 7 6 5 4 4 5 5 5 4 4 4 4 3 3 3 2 2 3 3 3 3 4 4 5 5 6 6 6 6 7 7 8 8 8 9
25 23 22 22 22 22 22 21 21 21 20 19 19 18 17 18 19 19 19 18 16 15 14 13 13 13 12 11 11 10 8 8 8 9 9 9 9 9 8 8 8 7 8 8 8 7 6 6 6 7 7 6 6 5 5 5 5 5 5 5 5 5 4 4 4 4 4 4 4 4 4 4 4 5 6 6 6 6 6 7 7 8 9 9 10
24 23 21 20 21 21 21 21 22 22 21 20 20 19 19 20 20 20 19 18 17 15 15 15 14 14 12 11 11 10 8 9 9 10 10 10 10 10 9 9 9 9 9 9 9 7 7 7 7 8 8 7 6 6 6 6 6 6 7 7 6 6 6 5 5 5 5 5 4 4 4 4 4 5 5 6 6 6 7 7 7 8 9 10 10
23 23 22 22 22 21 21 22 23 23 22 21 21 21 21 21 20 20 19 18 17 16 16 15 14 14 12 12 11 10 9 10 10 11 11 11 11 11 10 10 10 10 10 10 8 7 7 8 9 9 8 7 7 6 6 6 7 7 7 7 7 7 7 6 6 6 5 5 4 4 4 4 4 4 5 5 6 6 7 7 7 8 9 10 11
24 25 25 24 24 23 22 23 23 23 23 22 22 22 22 21 21 20 19 18 17 17 17 16 15 14 13 12 11 10 10 11 11 12 12 12 12 11 11 11 11 11 11 10 8 8 8 9 10 9 8 8 7 7 7 7 7 7 7 7 7 7 6 6 6 5 4 4 3 3 4 4 4 4 5 6 6 6 7 7 8 9 10 11 12
26 27 26 24 24 24 23 23 24 24 23 23 23 23 23 22 21 20 19 18 17 18 18 17 16 15 14 12 11 11 12 12 12 12 12 12 12 12 13 12 12 13 12 11 10 10 10 10 10 9 9 9 8 8 8 7 7 7 7 7 6 6 6 5 5 4 4 4 4 4 4 4 4 5 6 7 7 7 7 7 8 9 10 11 12
27 27 26 25 24 24 24 23 24 25 23 23 23 24 24 23 21 20 19 18 18 19 19 18 17 16 15 13 13 13 13 12 13 13 13 12 12 12 13 13 14 14 13 12 12 12 11 11 11 11 11 11 10 9 9 8 8 8 7 7 7 6 6 5 5 4 4 4 5 5 5 5 5 6 7 8 8 8 7 7 9 10 12 13 14
26 25 24 24 23 24 24 24 25 25 23 23 24 25 24 23 22 21 20 20 20 20 20 19 19 17 16 15 15 14 14 13 14 14 13 13 13 13 13 14 15 15 14 14 14 13 13 13 13 13 13 13 12 11 10 10 9 8 8 7 7 7 6 5 5 5 5 5 6 5 5 6 6 7 8 9 10 10 9 9 10 13 14 15 16
26 26 25 24 23 24 24 24 24 24 24 25 25 25 24 23 22 21 21 21 22 22 21 21 20 18 17 16 16 15 14 14 14 14 14 15 14 14 15 15 16 16 16 16 15 15 15 15 15 15 14 14 13 12 11 11 10 9 8 8 7 7 6 6 6 6 6 6 6 6 6 7 7 8 9 10 10 10 10 10 12 14 15 16 17
26 28 28 27 25 25 25 25 25 25 25 26 25 24 24 24 23 22 22 22 23 22 21 21 20 19 18 17 17 16 15 14 14 15 15 15 15 15 16 16 17 18 19 18 17 17 17 18 17 16 15 15 13 12 12 11 10 9 9 8 8 7 7 7 7 7 7 7 7 7 7 7 8 8 8 9 10 10 11 11 12 14 15 16 18
26 28 28 28 27 26 25 25 26 25 25 25 25 25 24 24 24 23 24 24 23 22 21 20 20 19 19 18 17 16 15 15 15 16 16 16 16 16 17 17 18 20 20 20 19 19 19 19 18 17 16 15 14 13 12 12 11 10 9 8 8 7 7 7 7 7 7 8 8 8 8 8 8 8 9 9 10 11 11 12 13 14 15 17 18
25 26 27 28 28 27 26 27 27 26 26 26 25 25 25 24 25 25 25 24 23 22 21 20 20 20 20 19 18 17 17 17 17 17 17 16 16 17 18 19 19 20 21 21 20 20 19 18 18 17 15 14 14 13 12 12 10 9 9 8 8 7 8 8 8 7 8 9 9 9 9 9 9 9 10 11 11 12 13 13 14 15 17 18 19
24 25 28 28 28 27 27 28 27 26 26 26 26 26 26 26 26 26 26 25 23 22 21 21 21 21 21 20 20 19 18 18 18 17 16 16 17 18 19 19 19 20 21 22 22 21 19 18 18 17 16 14 14 13 12 11 11 10 9 8 8 8 8 8 8 8 9 10 10 11 11 10 10 11 11 12 12 13 14 15 16 17 18 19 20
25 26 29 29 28 27 27 28 27 27 27 27 27 26 27 27 27 27 26 25 24 23 22 22 22 22 22 21 21 20 19 19 19 17 16 16 17 18 18 18 19 20 22 23 22 21 19 18 18 18 16 15 14 13 13 12 12 11 10 9 8 8 8 8 8 9 9 11 12 12 12 12 12 13 13 14 14 15 16 16 17 18 19 20 20
28 29 29 29 27 26 27 27 27 27 27 27 27 27 28 28 28 27 26 25 24 24 23 23 23 22 22 22 21 21 20 20 19 18 16 16 16 18 18 18 19 21 22 23 22 20 19 19 19 18 16 16 15 14 14 13 12 11 10 9 9 9 9 9 9 10 10 11 12 13 14 14 14 15 15 16 16 17 17 18 19 19 20 21 21
31 30 29 27 26 26 27 28 28 27 27 27 28 28 29 28 28 27 26 26 26 25 24 24 23 23 22 22 22 21 20 20 19 18 16 15 16 16 17 19 20 21 22 23 22 20 19 19 18 18 17 16 16 15 14 14 13 12 12 11 11 11 11 11 11 11 12 13 13 14 15 16 16 17 17 18 18 19 20 20 20 21 21 21 22
30 30 29 27 27 28 29 29 29 27 27 28 28 29 29 29 28 27 26 26 27 26 25 24 23 23 22 22 22 21 21 20 20 19 16 15 15 16 17 18 20 21 22 23 22 20 19 19 19 18 17 16 16 16 15 15 15 14 14 13 13 12 12 13 13 13 14 15 15 16 16 17 18 19 19 20 21 22 22 23 23 23 23 23 23
29 29 28 27 28 29 30 30 28 27 27 28 28 29 29 28 28 27 26 26 27 26 25 24 23 23 22 21 22 21 21 21 20 19 17 15 15 16 18 19 20 21 23 23 21 21 21 20 19 19 18 17 17 17 16 16 16 16 16 15 15 14 14 15 15 15 16 17 17 17 18 19 20 21 22 23 24 25 25 25 25 25 25 25 25
30 29 28 28 29 31 31 31 29 28 28 28 28 28 28 28 27 27 26 26 26 26 26 24 23 23 21 22 22 23 22 22 21 19 17 16 16 17 19 21 22 22 23 23 22 22 22 21 21 20 20 19 18 18 18 18 18 19 18 18 17 17 17 17 17 17 18 19 19 19 19 20 21 23 24 25 26 27 28 28 28 27 28 28 28
31 31 29 29 31 32 32 31 30 29 30 29 28 28 27 27 26 26 26 26 26 26 26 24 23 22 22 22 23 23 23 22 21 19 17 16 17 18 21 22 23 23 23 23 23 23 23 22 21 20 20 19 18 19 19 20 21 21 20 20 20 20 19 19 19 20 20 21 21 21 21 22 23 24 26 27 28 29 30 30 30 30 30 30 30
32 32 31 31 32 33 33 31 30 30 29 28 26 26 26 26 25 25 26 26 26 26 25 23 22 22 23 23 23 23 23 23 21 19 18 17 17 18 20 22 23 23 24 24 24 24 23 23 21 20 20 20 20 20 21 22 22 22 22 22 22 22 21 21 21 22 23 23 23 23 23 24 25 26 27 28 29 30 31 32 32 33 33 33 33
31 33 32 33 33 33 32 30 29 29 27 26 25 25 25 25 25 26 26 26 25 24 24 23 23 23 23 23 23 24 24 24 22 20 19 18 18 18 19 21 23 23 24 24 25 24 23 23 22 21 21 21 21 22 22 23 23 24 24 24 24 24 24 23 23 24 25 25 25 25 25 26 27 28 29 30 30 31 32 33 34 35 36 36 36
31 33 34 35 34 32 30 29 29 28 26 26 25 25 25 25 25 26 26 24 24 23 24 24 23 23 23 23 23 24 25 24 23 21 20 19 19 19 19 21 22 23 24 24 25 25 24 24 23 24 24 23 23 23 24 25 25 26 27 27 26 26 26 25 25 26 26 27 27 27 27 28 29 30 30 30 31 32 34 35 36 37 37 38 38
30 31 35 38 34 31 29 28 27 27 26 26 26 25 25 24 25 25 24 23 23 24 24 24 23 23 23 23 24 24 25 25 24 23 21 21 20 20 20 22 23 23 24 25 26 26 25 25 26 26 26 26 25 25 26 27 28 28 28 28 28 28 27 26 27 27 28 28 29 29 29 29 30 31 31 31 32 34 35 36 37 38 39 39 40
28 28 34 38 35 31 28 25 25 25 26 27 26 25 24 23 23 24 23 23 23 24 24 24 24 24 24 24 24 24 25 25 24 24 23 22 22 22 22 23 25 25 26 27 28 27 27 27 28 28 27 27 27 27 27 28 29 30 29 29 29 29 28 28 29 29 30 30 31 31 31 31 31 31 31 31 33 35 36 38 38 39 41 42 42
29 30 33 36 36 33 27 25 25 26 27 27 27 26 24 23 23 23 23 23 24 24 25 25 25 25 24 24 24 24 25 25 25 25 24 25 24 24 24 25 26 27 29 30 29 29 28 28 29 28 28 29 29 29 29 29 30 30 30 29 31 31 30 29 30 31 32 33 33 33 32 32 32 32 32 32 33 35 37 39 40 41 43 43 44
32 32 34 36 38 36 31 28 27 27 28 29 28 27 25 24 23 22 23 23 24 25 25 25 25 24 24 24 25 25 25 26 26 26 26 27 27 26 26 27 28 28 29 29 29 29 29 29 29 29 29 30 31 31 31 31 31 31 31 31 32 33 32 30 31 32 34 34 34 34 33 33 33 33 34 34 35 37 39 41 42 44 45 45 45
33 33 33 36 39 38 34 30 29 28 29 30 30 28 26 25 24 22 22 23 24 24 24 24 25 24 24 25 25 26 26 26 27 27 27 29 29 29 28 29 29 29 28 27 28 29 29 30 30 31 31 32 33 33 33 33 33 33 33 33 33 35 35 33 32 33 35 36 36 35 34 35 35 35 35 36 37 39 42 43 45 46 47 47 48
34 33 31 33 36 36 33 31 30 30 30 31 31 30 27 26 25 23 23 24 25 24 24 24 25 25 25 25 26 27 27 27 27 28 28 29 30 30 29 29 30 30 29 30 30 31 31 31 32 33 33 34 35 35 35 35 36 36 36 36 36 36 36 36 34 33 35 37 37 36 36 36 37 37 37 38 40 42 44 45 46 47 48 49 50
34 33 31 31 32 32 32 32 31 31 32 33 33 32 30 28 26 26 25 26 26 25 25 25 26 26 27 26 27 27 28 28 28 28 28 28 29 29 29 29 30 30 30 31 32 32 32 33 33 34 35 36 37 37 37 37 37 37 38 38 38 38 37 36 35 35 36 37 38 39 38 37 38 39 40 41 44 46 47 48 48 49 50 51 52
33 33 33 33 32 32 32 32 31 30 33 35 35 34 32 29 28 28 27 27 27 26 27 27 27 27 27 27 27 27 27 28 28 27 27 27 28 29 29 29 30 30 30 30 31 31 32 33 35 36 37 37 37 38 38 37 37 38 38 39 39 39 38 38 37 37 37 38 39 40 39 38 40 42 42 44 47 49 49 50 51 52 52 53 54
33 35 37 37 35 33 32 31 30 30 31 34 36 35 33 30 30 30 29 28 28 28 28 28 27 27 27 26 26 26 27 27 27 28 28 28 29 29 30 30 30 31 31 31 32 32 32 33 35 36 36 36 37 37 38 38 38 38 38 39 39 39 39 39 39 38 39 39 39 40 41 41 43 45 45 47 49 49 50 52 53 54 55 56 57
33 35 40 40 36 33 32 31 30 30 30 33 36 37 35 32 31 31 30 29 30 30 29 28 28 27 27 26 26 27 28 28 29 29 30 30 30 31 31 31 32 32 32 33 33 33 33 34 35 35 35 36 37 38 39 39 39 39 39 39 39 40 40 41 40 40 40 40 41 43 44 45 47 48 47 48 49 49 51 53 54 56 57 59 60
35 37 42 44 38 33 32 31 30 31 32 33 35 36 37 36 34 33 32 31 31 31 30 30 29 29 28 28 28 29 30 30 31 32 32 33 33 32 32 32 32 33 34 34 35 35 35 36 37 37 37 37 38 38 39 39 39 39 40 40 41 42 42 42 42 42 42 43 45 47 48 49 49 49 49 49 51 52 54 56 57 59 61 62 63
38 39 42 46 43 35 31 30 30 31 32 34 35 34 35 38 38 36 35 34 32 31 31 31 30 30 31 31 31 31 32 33 34 34 34 34 34 34 34 34 34 35 35 36 36 37 36 37 38 38 39 39 39 39 39 39 39 40 41 42 42 43 43 44 44 44 45 47 49 50 51 51 51 52 53 54 55 56 58 60 62 64 66 68 68
42 42 43 47 46 39 32 29 31 33 35 37 36 34 34 36 39 39 39 36 34 33 32 32 32 32 33 33 33 33 33 33 33 34 34 34 34 34 35 35 36 36 36 36 38 38 38 39 39 39 40 40 40 40 40 41 41 42 43 44 44 45 46 46 47 48 49 50 52 52 53 53 54 56 58 59 59 59 61 65 67 69 71 72 73
Wind_Direction
249 250 253 257 259 260 258 260 265 269 269 269 267 268 272 275 275 270 262 260 262 259 255 255 255 256 260 263 271 281 287 278 264 263 266 265 265 267 268 268 267 268 270 267 265 261 258 255 252 252 251 252 253 253 255 256 258 259 261 262 264 266 268 270 271 273 274 276 279 282 285 286 286 286 285 285 284 283 283 283 284 284 286 287 288
249 250 252 254 255 255 255 254 256 261 263 263 263 266 271 272 270 266 264 266 268 265 259 254 250 251 256 259 263 272 282 284 273 263 263 270 273 273 271 267 265 266 268 266 263 260 256 255 254 253 252 252 253 254 256 258 261 263 266 268 269 270 271 273 274 275 275 277 279 281 283 285 285 286 286 287 287 287 286 286 287 287 288 290 292
251 252 252 253 254 253 252 249 247 251 255 257 260 265 267 266 263 264 267 268 268 266 256 247 244 248 253 255 259 264 272 276 271 261 261 267 271 271 269 267 265 266 267 266 263 259 254 251 250 251 252 252 253 253 255 257 261 264 267 269 270 272 273 274 275 276 278 279 281 282 283 284 285 286 287 288 289 289 290 291 292 292 293 295 297
252 251 251 251 251 250 248 243 240 242 247 253 259 262 262 260 260 263 267 266 264 264 254 244 242 244 246 250 258 263 265 266 264 263 264 266 269 270 269 270 269 268 265 262 261 259 255 250 246 246 247 250 251 251 252 254 258 261 265 267 270 272 274 275 276 277 279 280 281 282 282 284 285 286 288 290 292 293 294 296 297 298 299 301 303
251 249 249 250 248 247 246 241 238 237 240 249 256 258 259 258 258 261 263 263 263 262 253 245 241 239 238 241 252 260 262 261 262 269 272 272 274 274 273 272 270 268 264 258 258 258 256 251 245 242 243 245 246 246 248 250 253 257 262 267 270 272 272 272 273 273 275 277 278 278 279 281 283 286 289 292 294 296 297 298 299 300 302 304 307
249 246 246 248 245 243 244 242 238 234 236 244 251 253 256 258 258 259 260 261 263 259 249 243 240 239 236 235 244 253 253 255 263 271 278 281 281 277 274 272 268 267 263 256 255 254 253 250 244 240 240 240 240 241 243 245 250 255 260 265 267 267 267 266 266 267 269 271 272 274 277 279 282 284 287 290 291 292 294 295 295 297 299 301 303
245 243 244 246 245 242 241 240 232 227 232 240 244 249 254 257 257 257 258 260 261 256 247 238 235 236 234 234 241 245 243 250 261 271 280 284 282 278 273 268 265 264 260 254 251 250 249 247 243 240 238 238 237 239 241 244 248 253 257 259 261 262 263 263 262 263 264 266 269 272 276 278 281 282 283 284 284 285 287 287 287 290 295 299 301
240 239 242 244 245 241 238 231 218 218 229 236 240 245 250 253 254 255 257 258 258 254 246 233 230 231 228 231 238 242 244 249 258 271 281 284 282 278 272 269 268 261 255 251 246 244 244 242 241 241 241 240 238 239 241 244 248 252 254 256 258 261 263 263 262 262 263 266 270 273 275 277 280 282 283 284 285 286 285 281 281 291 308 321 331
235 236 239 242 244 240 233 221 210 216 228 234 237 240 244 249 252 254 255 255 254 252 245 233 229 227 223 227 237 242 247 252 263 278 284 282 282 277 269 268 269 257 247 246 244 242 240 238 240 240 239 239 238 238 240 242 246 249 252 253 255 257 259 261 261 263 265 269 272 272 273 277 282 287 290 293 298 301 296 296 315 336 342 345 347
232 233 234 237 240 237 227 216 212 219 228 233 235 235 239 245 250 252 252 251 251 247 241 233 227 226 224 227 238 245 250 257 266 275 277 274 280 284 274 261 252 244 239 240 243 240 233 230 234 235 236 237 238 237 237 237 241 246 249 248 248 249 252 257 261 264 267 268 270 271 272 278 285 292 304 316 330 339 343 345 345 342 340 339 339
229 230 229 232 237 234 222 214 215 220 227 233 231 231 235 242 247 248 249 248 245 242 237 230 225 227 228 230 240 249 255 261 265 268 267 262 271 286 281 259 243 238 235 236 241 238 227 222 226 229 232 235 236 236 235 232 233 238 242 243 245 247 251 256 261 262 262 262 263 266 271 279 293 313 328 339 345 345 347 344 341 339 337 337 337
227 227 225 228 234 230 216 210 215 222 227 231 228 227 230 238 243 243 245 244 239 238 236 230 226 230 231 234 242 250 255 261 264 267 262 256 262 272 268 258 249 241 234 231 235 232 222 218 220 223 225 226 228 230 230 227 222 225 232 237 242 246 247 249 248 248 247 247 249 260 280 303 322 333 338 343 346 345 345 343 340 339 339 339 339
224 224 222 224 229 221 211 212 219 224 227 228 226 225 226 233 239 238 239 238 235 236 236 231 229 231 233 239 244 246 250 256 258 259 259 258 261 266 260 254 250 239 226 218 217 214 212 214 215 215 216 213 215 217 216 213 208 215 221 223 228 228 222 220 221 223 228 240 258 283 303 319 330 336 338 341 343 342 342 340 339 340 340 341 342
220 221 219 220 221 215 215 219 223 225 227 228 226 225 226 230 235 236 235 232 231 233 233 231 232 233 233 236 241 242 243 247 253 256 259 257 252 251 243 242 245 226 210 210 208 202 203 207 207 207 207 206 208 207 198 188 186 193 198 194 197 198 195 197 208 215 222 244 269 292 308 321 328 333 334 337 337 336 335 334 333 334 336 337 338
218 219 219 218 217 216 220 221 223 225 225 226 227 225 226 230 233 235 233 228 229 231 229 231 234 237 237 236 236 240 240 239 245 255 259 255 247 242 228 226 234 217 209 212 208 201 201 204 203 204 207 207 211 204 187 176 170 172 182 184 185 192 196 202 213 222 237 257 278 298 308 314 321 324 324 324 325 326 325 324 325 327 329 330 330
219 219 220 219 216 217 220 221 225 228 225 225 226 225 226 229 232 233 230 226 226 229 231 232 234 236 238 238 238 240 240 240 241 247 254 250 245 244 235 227 230 228 226 220 213 210 205 207 210 211 212 214 215 205 187 176 171 175 189 202 207 207 211 220 229 239 250 263 273 280 286 293 303 307 308 310 312 315 318 320 322 324 326 327 327
218 218 217 217 215 216 220 222 225 226 225 226 225 223 225 228 230 229 227 226 226 229 232 233 234 235 237 239 240 239 239 245 243 242 245 244 242 247 247 241 236 237 238 230 227 225 215 213 221 220 219 218 213 204 192 185 186 193 204 212 214 213 215 221 226 231 235 241 247 255 264 275 287 294 298 304 308 314 318 321 324 326 328 329 329
218 217 214 216 218 220 222 223 224 224 225 225 223 222 224 226 228 228 226 225 226 228 232 234 235 237 238 238 241 240 238 242 242 239 239 241 247 252 251 246 239 235 237 239 240 238 226 220 221 219 218 217 211 204 200 199 201 206 209 210 210 212 216 220 224 224 224 226 232 244 259 273 286 293 301 307 311 316 318 321 325 327 328 328 327
220 219 217 219 222 222 224 224 223 223 222 221 220 221 224 226 228 229 227 225 226 229 232 235 237 239 238 237 239 238 237 237 237 236 236 240 250 253 249 247 245 240 239 243 243 238 231 224 217 214 216 217 214 210 209 211 212 213 212 213 214 217 222 225 226 222 218 222 233 250 265 278 290 298 307 311 311 313 316 321 325 325 325 325 325
223 223 219 218 221 223 225 224 221 221 220 219 220 222 224 226 227 228 229 228 229 231 233 236 238 239 237 236 236 234 233 234 235 235 236 239 243 245 245 247 250 248 246 247 244 237 231 226 221 221 224 225 225 224 224 223 222 221 220 220 223 227 230 232 232 230 231 237 250 265 274 285 295 305 310 309 306 308 312 316 319 321 322 323 323
226 226 222 219 222 225 225 223 220 218 218 219 222 223 225 226 225 226 228 231 233 236 238 240 242 242 239 236 234 232 231 231 231 231 231 234 236 240 245 248 249 250 248 246 244 238 233 230 230 232 234 236 238 238 237 236 233 231 230 232 236 240 241 243 246 252 259 268 274 277 282 292 300 305 305 300 297 299 304 311 316 319 318 316 313
225 225 222 218 222 226 223 220 218 217 219 220 222 224 226 227 225 224 226 229 232 237 242 244 245 244 242 238 234 232 231 230 228 227 227 229 232 237 245 249 249 249 249 247 243 239 235 234 236 239 242 244 245 244 241 241 240 240 239 242 246 250 252 255 263 271 275 276 276 278 284 293 298 298 294 291 290 289 295 307 314 314 311 307 305
226 226 225 221 220 222 222 218 217 219 221 222 223 224 226 228 227 225 225 227 231 236 242 246 246 245 242 239 236 233 231 228 227 226 227 229 232 236 242 247 249 247 247 247 244 240 238 238 241 245 248 249 247 244 242 241 240 240 241 245 250 254 258 265 270 273 270 268 269 272 280 285 287 286 284 284 285 285 293 308 314 312 309 307 305
225 222 224 225 222 222 224 222 220 221 222 221 223 225 225 227 228 227 228 229 232 236 240 244 246 245 242 240 238 237 234 229 228 228 229 232 235 239 242 245 246 244 244 245 243 240 240 242 245 249 252 251 248 245 242 240 237 238 240 243 249 254 260 266 267 266 265 264 265 267 269 270 272 274 278 283 286 290 300 312 312 308 306 305 303
221 218 218 221 223 223 225 225 222 220 221 221 223 225 225 226 228 229 230 233 235 238 241 244 246 245 243 240 238 238 237 233 232 233 234 236 239 242 245 246 244 242 241 242 240 237 239 243 246 249 251 250 247 243 239 235 233 234 236 240 246 252 259 263 263 263 264 264 264 263 262 263 267 273 281 288 292 297 304 307 303 301 302 301 300
218 219 220 220 220 219 220 224 222 219 220 221 223 225 225 227 229 230 232 235 239 242 244 245 246 245 243 240 237 236 236 237 238 241 242 243 245 246 246 245 243 241 241 241 240 238 238 241 246 247 246 245 242 237 232 231 230 231 234 239 245 252 257 260 261 264 265 266 264 263 263 264 269 275 282 288 292 296 298 297 296 298 298 296 297
219 219 219 219 219 216 216 220 220 218 218 220 222 224 225 227 229 231 233 236 240 244 246 247 246 245 242 240 238 235 236 238 241 244 247 247 246 246 244 244 242 241 241 241 241 239 237 240 246 246 242 238 234 230 228 228 230 233 236 240 244 250 256 259 263 267 268 268 267 267 267 267 270 275 280 284 287 289 290 291 294 294 292 293 295
219 215 216 218 220 217 215 218 218 216 218 220 221 223 225 226 228 231 234 237 241 245 247 247 245 244 242 241 239 238 239 242 244 246 248 248 246 244 243 243 242 242 244 243 241 239 238 242 247 246 240 235 229 227 228 229 232 236 238 241 245 251 257 262 267 271 272 273 273 273 272 271 273 276 279 282 284 285 287 289 290 290 290 291 293
218 213 214 218 218 216 216 218 218 216 218 221 222 223 224 226 229 232 236 240 243 246 247 247 245 243 243 243 242 242 243 246 249 250 250 249 246 243 242 242 242 242 244 244 241 239 239 240 243 243 238 232 229 229 230 231 234 237 240 244 249 254 259 265 270 273 276 277 278 278 277 275 276 279 281 283 283 284 285 287 287 287 288 289 290
219 215 213 214 214 214 217 218 218 217 219 221 223 224 225 226 229 233 237 241 245 247 248 247 245 243 243 244 245 245 245 248 252 254 252 249 247 243 240 239 239 240 242 243 242 240 239 238 239 238 233 229 228 230 232 235 238 240 242 246 251 255 258 263 268 272 275 278 280 281 280 278 278 280 282 282 283 283 284 284 284 284 285 286 287
214 212 211 209 210 214 217 218 219 219 220 222 225 227 229 230 232 235 239 243 246 247 248 248 246 244 243 245 246 246 246 248 252 254 252 249 246 243 239 237 237 239 241 243 242 241 239 239 237 234 229 226 228 232 237 242 245 245 245 248 251 255 258 263 267 271 274 275 277 279 280 280 280 280 282 283 284 284 283 282 281 281 283 284 285
213 210 208 207 210 213 216 217 219 222 223 226 228 231 233 235 237 240 242 245 247 248 249 248 246 244 244 245 246 246 245 247 250 253 253 249 245 241 239 238 237 238 241 242 242 240 238 237 237 235 232 231 234 239 244 248 251 251 250 251 253 256 260 265 269 271 273 274 275 277 279 280 281 281 282 283 284 283 282 281 281 281 282 283 285
223 216 209 211 216 214 215 218 221 225 229 231 233 236 237 240 242 244 246 247 248 249 248 246 245 245 245 245 246 245 244 246 248 253 254 250 245 241 239 239 238 239 241 241 240 237 234 233 234 234 234 236 239 243 248 252 256 257 255 254 256 258 261 265 269 271 273 274 275 276 278 280 282 282 283 282 282 282 281 281 281 282 283 284 284
230 224 211 212 221 217 215 219 222 226 231 233 236 238 240 242 244 247 249 249 249 248 247 245 244 245 245 245 246 244 244 244 246 250 253 250 245 240 239 240 240 240 241 241 239 235 230 230 232 232 233 237 240 245 251 256 258 259 258 257 258 260 262 265 268 271 273 274 274 275 276 278 280 281 282 281 280 279 280 280 281 283 284 285 285
230 227 215 213 222 222 218 221 224 227 230 232 235 238 241 243 244 246 248 249 248 247 246 245 245 246 245 245 245 244 244 244 245 247 250 250 246 240 238 240 241 242 242 242 240 235 230 230 232 232 235 239 244 248 252 255 258 259 259 259 259 260 262 265 268 271 272 273 274 275 275 275 276 278 279 280 279 279 279 280 281 283 284 285 285
229 228 221 217 224 225 223 225 226 226 228 231 234 237 240 242 244 246 247 247 246 245 245 245 245 246 246 246 245 245 245 246 245 245 247 249 249 244 239 239 240 241 242 242 241 237 234 233 234 237 240 244 248 251 253 255 258 259 259 259 260 262 264 266 268 270 272 272 273 273 273 272 272 274 276 277 278 279 279 280 281 283 284 284 285
233 232 226 222 225 225 225 228 227 226 228 230 232 236 240 242 244 245 246 245 245 245 245 245 245 245 246 247 247 245 245 246 246 245 245 248 251 248 241 237 238 239 240 240 241 239 238 238 239 241 245 248 252 255 256 257 258 259 260 260 261 262 263 265 268 270 271 270 270 270 270 270 270 271 273 275 276 277 278 279 280 282 282 283 283
239 239 232 226 225 223 223 227 227 227 229 231 232 235 237 240 242 244 245 244 245 245 244 244 244 245 246 246 246 246 246 247 247 246 245 246 249 249 244 239 237 238 238 239 241 243 244 245 246 247 250 253 256 258 260 261 260 260 260 260 260 261 263 267 269 270 270 269 269 269 269 269 269 270 271 272 274 275 276 277 278 279 281 282 283
241 244 235 227 224 221 221 225 228 229 232 234 236 236 236 238 240 242 243 243 244 244 244 244 243 243 245 245 246 247 247 248 248 247 247 247 247 248 247 243 240 239 240 241 243 244 247 249 251 253 256 257 259 260 261 261 261 260 259 260 261 262 265 267 268 268 269 269 269 269 269 268 268 268 269 271 272 274 275 276 277 279 280 282 283
241 241 233 228 225 219 220 227 232 234 237 240 243 241 238 238 238 239 240 240 242 243 242 243 242 241 242 243 245 246 247 249 250 250 250 249 248 247 246 246 243 241 242 244 245 246 248 251 255 257 260 261 261 260 260 260 261 260 260 260 262 263 265 267 268 269 269 269 270 270 270 269 269 270 271 272 273 275 276 277 279 281 282 283 283
240 237 233 231 228 223 224 235 239 239 240 243 246 246 241 238 238 239 240 240 240 241 241 241 241 241 240 241 243 245 246 249 250 250 251 250 250 248 245 245 244 242 243 245 247 248 250 253 257 259 260 260 260 260 260 260 260 261 261 261 262 264 265 268 270 270 270 270 271 271 271 272 273 274 275 276 276 277 278 279 280 281 281 281 281
241 239 237 237 234 230 232 239 241 241 241 241 244 246 241 238 240 242 242 241 239 238 239 241 241 241 240 240 242 243 244 246 248 249 250 251 251 250 247 246 247 247 247 249 251 252 252 254 257 259 259 259 259 260 261 261 261 260 261 262 264 266 267 269 270 271 271 272 272 272 273 275 276 277 278 279 279 279 278 279 279 280 280 280 281
243 242 241 241 238 234 234 238 241 243 243 241 243 245 240 238 242 246 247 244 241 239 239 240 241 241 240 240 242 243 244 245 247 248 250 252 252 252 250 250 250 251 251 250 251 253 253 254 256 257 258 259 260 261 262 262 261 260 260 261 263 265 266 268 270 272 273 273 274 276 278 279 280 281 281 281 281 280 279 280 281 282 283 284 285
245 243 243 241 237 233 235 240 242 243 242 241 243 245 243 241 244 249 251 248 245 243 242 242 243 243 242 242 243 245 246 247 248 249 250 252 253 253 253 253 253 254 252 250 249 251 253 255 257 258 260 261 261 261 261 262 261 261 262 263 264 265 267 270 273 275 276 277 278 279 280 280 281 282 283 283 282 281 282 282 284 285 286 287 287
245 243 240 237 233 233 236 238 240 239 238 237 240 242 244 244 246 248 251 249 246 245 244 244 245 246 246 246 246 246 248 249 250 250 249 249 251 252 253 253 255 255 253 252 252 252 254 256 258 259 260 260 261 261 261 262 263 264 265 267 268 269 271 273 276 277 278 279 279 279 280 281 282 282 284 284 284 284 285 286 286 287 287 287 286
244 241 237 234 234 235 235 236 238 237 234 235 239 242 243 245 246 249 251 250 246 243 243 244 245 246 247 247 247 247 247 247 248 248 247 246 248 252 256 256 256 256 255 255 254 254 255 256 257 257 257 258 259 261 262 263 264 266 267 268 269 269 271 273 275 277 277 278 278 279 280 281 282 283 284 284 284 284 285 285 286 286 286 285 284
242 240 237 234 233 235 234 234 238 237 234 235 240 244 246 247 248 250 251 252 249 245 243 244 246 247 247 248 248 247 245 244 244 245 246 246 248 253 257 260 261 261 260 259 258 257 257 257 257 256 256 257 258 259 261 262 264 266 267 268 268 269 271 272 274 275 275 276 277 278 279 280 280 281 283 282 282 284 284 284 285 286 285 284 283
238 236 234 231 230 233 234 234 239 240 237 236 239 243 247 248 247 247 248 251 252 248 244 243 245 247 248 248 248 247 245 244 244 245 247 249 252 255 258 261 264 265 264 264 263 261 260 260 259 259 259 258 258 258 259 261 262 264 265 266 268 269 271 272 273 274 275 276 277 278 280 281 281 282 283 283 284 285 285 286 286 286 285 284 284
235 230 229 229 228 232 236 235 238 243 242 239 239 242 245 247 248 246 246 249 251 248 244 242 244 247 249 249 249 250 249 249 249 250 251 253 255 257 258 260 263 265 266 267 266 264 263 263 264 264 263 262 261 261 260 260 262 263 265 267 268 270 271 273 274 276 277 279 281 282 283 284 285 286 286 286 287 288 288 288 288 287 287 287 287
231 228 229 231 230 231 238 240 241 243 241 238 238 240 241 244 248 248 247 248 249 246 242 240 242 246 249 251 251 251 252 252 253 253 255 257 258 259 259 261 263 266 267 266 265 263 263 262 263 264 264 264 264 265 265 266 267 269 270 271 272 273 275 276 277 279 282 284 285 286 287 288 288 288 288 288 289 290 290 290 290 289 289 288 287
227 225 228 232 230 230 239 245 244 244 240 237 237 236 235 239 244 246 246 247 249 246 241 240 242 244 249 252 253 254 254 254 255 256 256 257 259 260 261 263 264 265 265 264 263 262 261 260 261 263 265 266 268 268 270 271 272 274 275 276 277 278 279 280 282 284 286 288 288 289 289 290 289 289 290 290 290 291 291 291 290 290 289 288 288
Height
5821 5821 5821 5822 5822 5822 5823 5824 5824 5823 5823 5824 5824 5824 5824 5823 5824 5825 5825 5825 5825 5824 5824 5823 5823 5823 5822 5822 5822 5822 5822 5822 5822 5822 5822 5821 5821 5820 5820 5820 5820 5820 5819 5819 5819 5819 5819 5819 5819 5819 5819 5819 5819 5819 5819 5819 5819 5819 5819 5819 5819 5819 5819 5818 5818 5818 5818 5818 5818 5818 5817 5817 5816 5816 5815 5815 5815 5814 5814 5814 5814 5813 5813 5813 5813
5818 5819 5819 5820 5820 5820 5821 5821 5822 5822 5822 5822 5823 5824 5823 5823 5823 5823 5823 5823 5823 5823 5823 5823 5822 5822 5821 5822 5822 5822 5822 5821 5821 5821 5821 5820 5820 5819 5819 5818 5818 5818 5818 5818 5818 5818 5818 5818 5818 5818 5818 5818 5818 5818 5818 5818 5818 5818 5818 5818 5818 5818 5817 5817 5817 5817 5817 5817 5817 5817 5816 5816 5815 5815 5814 5814 5814 5813 5813 5813 5813 5812 5812 5812 5812
5816 5817 5817 5817 5818 5818 5818 5819 5820 5820 5820 5821 5822 5823 5823 5822 5822 5822 5822 5822 5822 5822 5823 5822 5822 5821 5821 5821 5821 5821 5821 5821 5820 5820 5820 5819 5818 5818 5817 5817 5817 5817 5816 5816 5816 5816 5816 5816 5816 5817 5817 5817 5817 5817 5817 5817 5817 5817 5817 5817 5817 5816 5816 5816 5816 5816 5816 5816 5816 5816 5815 5815 5814 5814 5813 5813 5813 5813 5812 5812 5812 5812 5811 5811 5811
5814 5815 5815 5815 5816 5816 5816 5817 5818 5818 5819 5820 5821 5822 5822 5821 5821 5821 5821 5821 5821 5821 5822 5822 5821 5821 5820 5820 5820 5821 5820 5820 5820 5819 5819 5818 5817 5816 5816 5815 5815 5815 5815 5815 5815 5815 5815 5815 5815 5815 5815 5816 5816 5816 5816 5816 5816 5816 5815 5815 5815 5815 5815 5815 5815 5815 5815 5815 5815 5814 5814 5814 5813 5813 5813 5812 5812 5812 5812 5811 5811 5811 5811 5810 5810
5812 5813 5813 5813 5814 5814 5815 5815 5816 5816 5817 5819 5820 5821 5820 5820 5821 5821 5821 5821 5821 5821 5821 5821 5821 5820 5820 5820 5820 5820 5820 5819 5819 5818 5818 5817 5816 5816 5815 5814 5814 5813 5813 5813 5813 5813 5813 5814 5814 5814 5814 5814 5814 5815 5815 5815 5815 5814 5814 5814 5814 5815 5814 5814 5814 5814 5814 5814 5814 5813 5813 5813 5812 5812 5812 5812 5812 5812 5811 5811 5811 5810 5810 5810 5809
5810 5810 5811 5812 5812 5813 5813 5813 5814 5815 5816 5817 5819 5819 5819 5819 5820 5820 5820 5820 5820 5820 5820 5820 5820 5820 5820 5820 5820 5819 5819 5819 5818 5818 5817 5816 5816 5815 5814 5813 5812 5812 5812 5812 5812 5812 5812 5812 5813 5813 5813 5813 5813 5813 5813 5813 5813 5813 5814 5814 5814 5813 5813 5813 5813 5813 5813 5813 5812 5812 5812 5812 5812 5812 5811 5811 5811 5811 5811 5811 5810 5810 5810 5809 5809
5807 5808 5809 5810 5810 5811 5812 5812 5813 5813 5815 5816 5817 5818 5818 5818 5819 5819 5820 5819 5819 5819 5820 5820 5820 5819 5819 5819 5819 5819 5819 5818 5818 5817 5816 5815 5815 5814 5813 5812 5812 5811 5811 5811 5811 5811 5811 5812 5812 5812 5812 5812 5812 5812 5812 5812 5812 5813 5813 5813 5812 5813 5813 5812 5812 5812 5812 5812 5812 5811 5811 5811 5811 5811 5811 5811 5811 5811 5811 5810 5810 5810 5810 5809 5809
5805 5806 5807 5808 5808 5809 5810 5810 5811 5812 5813 5814 5815 5816 5816 5817 5818 5819 5819 5818 5818 5818 5819 5819 5819 5819 5819 5819 5818 5818 5818 5818 5817 5816 5815 5815 5814 5813 5812 5812 5811 5811 5811 5811 5811 5811 5811 5811 5811 5811 5811 5812 5812 5812 5812 5812 5812 5812 5812 5812 5812 5812 5812 5812 5812 5811 5811 5811 5811 5811 5811 5811 5811 5811 5811 5810 5810 5810 5810 5810 5810 5810 5809 5809 5809
5803 5804 5805 5806 5806 5807 5808 5809 5810 5811 5812 5813 5814 5815 5815 5816 5817 5818 5818 5818 5817 5817 5818 5818 5818 5818 5818 5818 5818 5818 5817 5817 5816 5816 5815 5814 5813 5812 5812 5811 5811 5810 5810 5810 5810 5810 5810 5810 5810 5810 5811 5811 5811 5811 5811 5811 5811 5811 5811 5811 5811 5811 5811 5811 5811 5811 5811 5811 5810 5810 5810 5810 5810 5810 5810 5810 5810 5810 5809 5809 5809 5809 5809 5808 5808
5801 5802 5803 5803 5804 5805 5807 5808 5808 5809 5810 5812 5813 5814 5814 5814 5816 5817 5817 5817 5817 5816 5817 5817 5818 5817 5817 5817 5817 5817 5816 5816 5816 5815 5814 5814 5813 5812 5811 5811 5810 5810 5810 5809 5809 5809 5810 5810 5810 5810 5810 5810 5810 5810 5810 5810 5810 5810 5810 5810 5810 5810 5810 5811 5811 5811 5810 5810 5810 5810 5810 5809 5809 5809 5809 5809 5809 5809 5809 5809 5809 5808 5808 5808 5808
5800 5800 5801 5801 5802 5803 5805 5806 5806 5808 5809 5810 5812 5813 5813 5814 5815 5816 5816 5817 5816 5816 5816 5816 5817 5817 5816 5816 5816 5816 5815 5815 5815 5814 5814 5814 5813 5812 5811 5810 5810 5809 5809 5809 5809 5809 5809 5809 5809 5809 5809 5809 5809 5809 5809 5810 5810 5810 5810 5810 5810 5810 5810 5810 5810 5810 5810 5810 5810 5809 5809 5809 5809 5809 5809 5808 5808 5808 5808 5808 5808 5808 5808 5808 5807
5798 5798 5799 5799 5800 5801 5803 5804 5805 5806 5807 5808 5810 5812 5812 5813 5814 5815 5816 5816 5816 5815 5815 5816 5816 5816 5815 5815 5815 5815 5814 5814 5813 5813 5813 5813 5812 5811 5811 5810 5810 5809 5809 5808 5808 5808 5808 5809 5809 5809 5809 5809 5809 5809 5809 5809 5809 5810 5810 5810 5810 5810 5810 5810 5810 5810 5810 5810 5810 5809 5809 5809 5809 5808 5808 5808 5808 5808 5808 5808 5808 5808 5807 5807 5807
5795 5796 5797 5797 5798 5800 5801 5802 5803 5804 5805 5806 5808 5810 5811 5812 5812 5813 5815 5815 5815 5815 5814 5814 5815 5814 5814 5814 5814 5814 5813 5813 5813 5813 5813 5812 5811 5811 5810 5810 5809 5809 5808 5808 5808 5808 5808 5808 5808 5808 5808 5808 5809 5809 5809 5809 5809 5809 5809 5809 5809 5810 5809 5809 5809 5809 5810 5810 5810 5809 5809 5809 5808 5808 5808 5808 5807 5807 5807 5807 5807 5807 5807 5807 5806
5793 5794 5795 5795 5797 5798 5799 5800 5801 5802 5804 5805 5806 5808 5809 5810 5811 5812 5814 5815 5814 5814 5813 5813 5813 5813 5813 5813 5813 5813 5812 5812 5812 5812 5812 5812 5811 5811 5810 5810 5810 5809 5809 5808 5808 5807 5808 5808 5808 5808 5808 5808 5808 5808 5808 5809 5809 5809 5809 5809 5809 5809 5809 5809 5809 5809 5809 5809 5809 5809 5809 5808 5808 5808 5807 5807 5807 5807 5807 5807 5807 5806 5806 5806 5806
5791 5792 5793 5793 5795 5796 5797 5799 5800 5801 5802 5803 5804 5806 5808 5809 5810 5811 5813 5814 5813 5813 5812 5811 5812 5812 5812 5812 5812 5812 5812 5811 5811 5811 5811 5811 5811 5811 5811 5810 5810 5809 5809 5808 5808 5807 5807 5808 5808 5808 5808 5808 5808 5808 5808 5808 5809 5809 5808 5808 5809 5809 5809 5809 5809 5809 5809 5809 5808 5808 5808 5808 5808 5807 5807 5807 5807 5806 5806 5806 5806 5806 5805 5805 5805
5790 5791 5791 5792 5793 5794 5796 5798 5799 5800 5801 5801 5802 5804 5806 5808 5808 5809 5811 5812 5812 5812 5811 5810 5810 5811 5811 5811 5811 5811 5811 5811 5811 5810 5811 5811 5811 5810 5810 5810 5810 5809 5809 5808 5808 5807 5807 5807 5807 5808 5808 5808 5808 5808 5808 5808 5809 5809 5808 5808 5808 5809 5808 5808 5808 5808 5808 5808 5808 5808 5807 5807 5807 5807 5807 5807 5806 5806 5806 5805 5805 5805 5805 5804 5804
5788 5789 5790 5790 5791 5793 5794 5796 5797 5798 5799 5800 5801 5803 5805 5806 5807 5808 5809 5810 5811 5810 5810 5809 5809 5809 5809 5810 5810 5810 5810 5810 5810 5810 5810 5810 5810 5810 5810 5810 5809 5809 5809 5808 5808 5807 5807 5807 5807 5807 5807 5808 5808 5808 5808 5808 5808 5808 5808 5808 5808 5808 5808 5808 5808 5808 5808 5808 5807 5807 5807 5807 5807 5807 5807 5807 5806 5806 5805 5805 5804 5804 5804 5803 5803
5787 5787 5788 5789 5790 5791 5792 5793 5795 5796 5797 5798 5800 5801 5803 5804 5805 5806 5807 5808 5809 5808 5808 5808 5808 5808 5808 5808 5809 5809 5809 5809 5809 5809 5809 5810 5810 5810 5810 5809 5809 5809 5809 5809 5808 5808 5807 5807 5807 5807 5807 5808 5808 5808 5808 5808 5808 5808 5808 5808 5808 5808 5808 5808 5808 5808 5807 5807 5807 5807 5807 5807 5807 5807 5806 5806 5806 5805 5805 5804 5804 5803 5803 5803 5802
5785 5786 5787 5788 5789 5789 5790 5791 5792 5794 5795 5796 5798 5799 5801 5802 5804 5805 5805 5806 5806 5806 5807 5807 5807 5807 5807 5807 5807 5807 5807 5808 5808 5808 5809 5809 5809 5809 5809 5809 5809 5808 5809 5808 5808 5808 5808 5807 5807 5807 5807 5808 5808 5808 5808 5808 5808 5808 5808 5808 5808 5808 5808 5807 5807 5807 5807 5807 5807 5806 5806 5806 5806 5806 5806 5806 5805 5805 5804 5804 5803 5803 5802 5802 5802
5783 5783 5784 5785 5786 5787 5789 5789 5790 5792 5793 5794 5795 5797 5799 5801 5802 5803 5803 5803 5804 5804 5805 5806 5806 5806 5806 5806 5806 5806 5806 5807 5807 5808 5808 5808 5808 5808 5808 5808 5808 5808 5808 5808 5808 5808 5808 5807 5807 5807 5807 5807 5807 5807 5807 5807 5807 5807 5807 5807 5807 5807 5807 5807 5807 5807 5806 5806 5806 5806 5806 5806 5805 5805 5805 5805 5805 5804 5804 5803 5803 5802 5802 5801 5801
5780 5781 5782 5783 5784 5785 5787 5788 5788 5789 5791 5792 5793 5795 5797 5798 5800 5801 5801 5801 5802 5802 5803 5804 5804 5804 5804 5804 5804 5804 5805 5805 5806 5806 5807 5807 5807 5807 5807 5807 5806 5806 5807 5807 5808 5808 5807 5807 5807 5807 5807 5807 5807 5807 5807 5807 5807 5807 5807 5807 5807 5807 5806 5806 5806 5806 5806 5806 5806 5805 5805 5805 5805 5804 5804 5804 5804 5804 5803 5802 5802 5801 5801 5800 5800
5778 5778 5780 5781 5782 5783 5784 5785 5786 5787 5789 5790 5791 5793 5794 5796 5797 5799 5799 5800 5801 5801 5801 5802 5802 5802 5803 5803 5803 5803 5804 5804 5805 5805 5805 5806 5806 5806 5806 5805 5805 5805 5805 5806 5807 5807 5807 5807 5807 5807 5807 5806 5806 5806 5806 5806 5806 5806 5806 5806 5806 5806 5806 5806 5805 5805 5805 5805 5805 5805 5804 5804 5804 5804 5804 5804 5803 5803 5802 5801 5800 5800 5800 5799 5799
5777 5778 5779 5779 5780 5781 5782 5783 5785 5786 5787 5788 5789 5790 5792 5793 5795 5796 5797 5799 5799 5799 5800 5800 5800 5801 5801 5801 5801 5802 5802 5803 5804 5804 5804 5804 5804 5804 5804 5804 5804 5803 5804 5805 5806 5806 5806 5806 5806 5806 5806 5806 5806 5806 5805 5805 5805 5805 5805 5805 5805 5805 5805 5805 5805 5805 5805 5804 5804 5804 5804 5803 5803 5803 5803 5803 5803 5802 5801 5800 5800 5799 5799 5798 5798
5775 5775 5776 5777 5778 5780 5781 5782 5783 5784 5785 5786 5787 5789 5790 5791 5792 5794 5795 5797 5798 5798 5798 5798 5799 5799 5800 5800 5800 5800 5801 5801 5802 5802 5803 5803 5803 5803 5803 5802 5802 5802 5802 5803 5804 5805 5805 5805 5805 5805 5805 5805 5805 5805 5805 5805 5805 5804 5804 5804 5804 5804 5804 5804 5804 5804 5804 5804 5803 5803 5803 5803 5803 5803 5803 5802 5802 5801 5800 5799 5799 5799 5798 5797 5797
5771 5771 5772 5774 5775 5778 5779 5780 5781 5782 5783 5784 5786 5787 5788 5789 5790 5792 5793 5794 5795 5796 5796 5797 5797 5797 5798 5798 5798 5798 5799 5800 5800 5800 5801 5801 5801 5801 5801 5801 5801 5800 5800 5801 5802 5803 5803 5803 5803 5804 5804 5804 5804 5804 5804 5804 5804 5804 5804 5804 5804 5804 5804 5803 5803 5803 5803 5803 5802 5802 5802 5802 5801 5801 5801 5801 5801 5800 5799 5799 5798 5798 5797 5796 5795
5768 5769 5770 5771 5772 5775 5777 5778 5779 5780 5781 5783 5784 5785 5786 5788 5789 5790 5792 5792 5793 5794 5794 5795 5795 5795 5796 5796 5796 5797 5797 5798 5798 5798 5799 5799 5800 5800 5800 5799 5799 5799 5799 5799 5800 5801 5801 5801 5801 5802 5802 5802 5803 5802 5803 5803 5803 5803 5803 5803 5803 5803 5803 5803 5802 5802 5802 5801 5801 5801 5801 5800 5800 5800 5800 5799 5799 5799 5798 5798 5797 5796 5796 5795 5794
5765 5767 5768 5769 5770 5772 5774 5775 5777 5778 5779 5781 5782 5783 5785 5786 5788 5789 5790 5791 5791 5792 5792 5793 5793 5793 5794 5794 5795 5795 5795 5796 5796 5797 5797 5797 5798 5798 5798 5797 5797 5797 5797 5797 5798 5798 5799 5800 5800 5800 5801 5801 5801 5801 5801 5802 5802 5802 5802 5802 5802 5802 5802 5801 5801 5801 5800 5800 5800 5800 5799 5799 5799 5798 5798 5798 5798 5797 5797 5796 5796 5795 5794 5793 5792
5763 5764 5765 5767 5768 5770 5772 5773 5774 5776 5777 5779 5780 5781 5783 5784 5786 5787 5788 5789 5789 5790 5790 5791 5791 5792 5792 5792 5793 5793 5793 5794 5794 5794 5795 5795 5795 5795 5795 5795 5795 5795 5795 5795 5796 5796 5797 5798 5798 5798 5799 5799 5799 5800 5800 5800 5801 5801 5801 5801 5801 5800 5800 5800 5800 5799 5799 5799 5799 5799 5798 5798 5797 5797 5797 5796 5796 5796 5795 5795 5794 5794 5793 5792 5790
5759 5760 5761 5763 5765 5767 5769 5771 5772 5774 5775 5777 5778 5779 5780 5782 5783 5785 5786 5786 5787 5787 5788 5789 5789 5790 5790 5791 5791 5791 5792 5791 5792 5792 5793 5793 5793 5793 5793 5793 5793 5793 5793 5793 5794 5795 5796 5797 5797 5797 5797 5798 5798 5799 5799 5799 5799 5800 5799 5799 5799 5799 5799 5798 5798 5798 5798 5798 5798 5797 5797 5797 5796 5796 5796 5795 5795 5795 5794 5794 5793 5792 5792 5790 5789
5755 5756 5757 5760 5762 5765 5767 5769 5770 5772 5774 5775 5776 5777 5778 5779 5781 5782 5783 5784 5784 5785 5786 5786 5787 5787 5788 5788 5789 5789 5790 5789 5789 5790 5790 5790 5790 5791 5791 5791 5791 5791 5791 5791 5792 5793 5794 5795 5796 5796 5796 5797 5797 5798 5798 5798 5798 5798 5798 5797 5797 5797 5797 5796 5796 5796 5796 5796 5796 5796 5796 5795 5795 5795 5794 5794 5794 5793 5793 5792 5792 5791 5790 5789 5788
5751 5752 5754 5757 5759 5762 5764 5766 5768 5770 5771 5772 5773 5774 5776 5777 5778 5780 5781 5781 5781 5782 5783 5784 5785 5785 5786 5786 5787 5787 5788 5787 5787 5787 5788 5788 5788 5788 5789 5789 5789 5789 5789 5789 5790 5792 5793 5793 5794 5794 5795 5796 5796 5796 5796 5797 5796 5796 5796 5796 5795 5795 5795 5794 5794 5794 5794 5794 5794 5794 5794 5794 5793 5793 5793 5793 5792 5792 5791 5791 5790 5789 5788 5787 5786
5750 5751 5752 5754 5757 5759 5762 5764 5765 5767 5769 5770 5771 5772 5773 5775 5776 5777 5778 5779 5779 5780 5781 5782 5782 5783 5783 5784 5784 5785 5785 5785 5785 5785 5786 5786 5786 5786 5787 5787 5787 5787 5787 5787 5789 5790 5791 5791 5791 5792 5793 5794 5794 5794 5794 5795 5795 5795 5794 5794 5794 5793 5793 5792 5792 5792 5792 5792 5792 5792 5792 5792 5792 5791 5791 5791 5791 5790 5790 5789 5788 5787 5786 5784 5783
5750 5751 5752 5754 5755 5757 5759 5761 5762 5764 5765 5767 5768 5770 5771 5773 5773 5774 5775 5776 5777 5777 5778 5779 5780 5780 5781 5781 5782 5782 5783 5783 5783 5783 5783 5784 5784 5784 5784 5785 5785 5785 5785 5785 5787 5788 5788 5789 5789 5790 5790 5791 5792 5792 5792 5793 5793 5793 5793 5792 5792 5791 5791 5790 5790 5790 5790 5790 5789 5789 5789 5790 5789 5789 5789 5789 5789 5788 5788 5787 5786 5785 5783 5782 5781
5748 5749 5751 5753 5754 5754 5756 5758 5759 5760 5762 5763 5765 5767 5769 5770 5771 5772 5773 5773 5774 5775 5776 5777 5778 5778 5778 5779 5779 5780 5780 5781 5781 5781 5781 5782 5782 5782 5782 5782 5782 5783 5783 5783 5784 5785 5786 5787 5787 5788 5789 5789 5790 5790 5790 5791 5791 5791 5791 5790 5790 5789 5789 5788 5788 5788 5787 5787 5787 5787 5787 5787 5787 5787 5787 5786 5786 5786 5785 5785 5784 5782 5781 5779 5778
5744 5747 5748 5750 5751 5752 5753 5755 5756 5757 5759 5760 5762 5764 5765 5767 5768 5769 5769 5770 5771 5772 5773 5774 5775 5775 5776 5776 5777 5777 5778 5778 5779 5779 5779 5780 5780 5780 5780 5780 5780 5780 5781 5781 5782 5783 5785 5785 5786 5786 5787 5787 5788 5788 5788 5788 5788 5788 5788 5788 5787 5787 5786 5786 5785 5785 5785 5785 5785 5785 5784 5784 5784 5784 5784 5784 5783 5783 5782 5782 5781 5779 5778 5776 5775
5741 5743 5745 5746 5748 5749 5750 5752 5753 5754 5756 5757 5759 5761 5762 5763 5765 5765 5766 5767 5768 5769 5770 5771 5772 5772 5773 5774 5775 5775 5775 5776 5777 5777 5777 5778 5778 5778 5778 5778 5778 5778 5778 5779 5780 5781 5783 5783 5784 5784 5784 5785 5785 5785 5785 5785 5785 5785 5785 5785 5784 5784 5783 5783 5783 5782 5782 5782 5782 5782 5781 5781 5781 5781 5780 5780 5780 5779 5779 5778 5777 5775 5774 5773 5771
5738 5741 5743 5743 5744 5746 5748 5749 5751 5752 5753 5754 5756 5758 5759 5760 5761 5762 5763 5764 5765 5766 5767 5768 5769 5769 5770 5771 5772 5772 5773 5773 5774 5775 5775 5776 5776 5776 5776 5777 5777 5777 5777 5777 5778 5779 5780 5781 5782 5782 5782 5782 5783 5783 5783 5783 5783 5782 5782 5782 5781 5781 5780 5780 5780 5779 5779 5779 5778 5778 5778 5778 5777 5777 5776 5776 5776 5775 5774 5773 5772 5771 5770 5768 5767
5736 5739 5741 5740 5740 5743 5745 5746 5748 5749 5750 5751 5752 5754 5756 5757 5758 5758 5759 5761 5762 5763 5764 5765 5766 5767 5767 5768 5769 5770 5770 5771 5771 5772 5773 5773 5774 5774 5774 5774 5775 5775 5775 5775 5775 5776 5777 5778 5779 5779 5779 5780 5780 5780 5780 5780 5779 5779 5779 5778 5778 5777 5777 5777 5776 5776 5776 5775 5775 5774 5774 5774 5773 5773 5772 5772 5772 5770 5769 5768 5767 5766 5765 5764 5762
5734 5736 5737 5736 5738 5740 5742 5743 5745 5746 5747 5748 5749 5751 5752 5753 5754 5755 5757 5758 5759 5760 5761 5762 5763 5763 5764 5765 5766 5767 5767 5768 5769 5770 5770 5771 5771 5772 5772 5772 5773 5773 5773 5773 5773 5773 5774 5774 5775 5776 5777 5777 5778 5778 5777 5776 5776 5776 5775 5775 5774 5774 5774 5774 5773 5773 5772 5771 5770 5770 5770 5770 5769 5768 5768 5768 5767 5766 5765 5764 5762 5761 5760 5759 5757
5731 5732 5733 5733 5735 5738 5739 5740 5742 5743 5744 5745 5746 5747 5749 5750 5751 5752 5753 5755 5756 5757 5758 5758 5759 5760 5761 5762 5763 5764 5765 5765 5766 5767 5768 5768 5769 5770 5770 5770 5770 5771 5771 5771 5771 5771 5772 5772 5772 5773 5774 5774 5774 5774 5774 5773 5772 5772 5772 5772 5771 5770 5770 5770 5769 5769 5768 5767 5766 5766 5766 5765 5764 5764 5764 5764 5763 5761 5760 5759 5757 5756 5755 5753 5752
5727 5728 5729 5730 5732 5734 5735 5737 5739 5740 5741 5741 5742 5744 5746 5747 5748 5749 5750 5752 5753 5754 5754 5755 5755 5756 5757 5758 5759 5760 5761 5762 5763 5764 5764 5765 5766 5767 5768 5768 5767 5768 5768 5768 5769 5769 5769 5770 5770 5770 5770 5770 5770 5770 5770 5770 5770 5769 5769 5769 5768 5766 5767 5767 5766 5765 5764 5763 5763 5762 5762 5761 5761 5760 5760 5759 5758 5757 5755 5754 5753 5751 5750 5748 5747
5723 5725 5726 5728 5729 5731 5732 5734 5735 5736 5737 5738 5739 5741 5743 5744 5745 5746 5747 5749 5750 5750 5751 5751 5752 5753 5754 5755 5756 5757 5758 5758 5759 5759 5760 5761 5762 5763 5765 5765 5764 5765 5766 5766 5766 5766 5767 5767 5767 5767 5767 5767 5766 5767 5767 5767 5767 5766 5766 5766 5764 5763 5763 5763 5762 5761 5760 5759 5759 5758 5758 5758 5757 5756 5755 5755 5754 5752 5750 5748 5747 5746 5744 5742 5741
5719 5721 5723 5725 5727 5728 5729 5730 5731 5733 5734 5735 5736 5738 5740 5741 5743 5744 5745 5745 5746 5747 5747 5748 5749 5750 5751 5752 5752 5753 5754 5754 5755 5756 5756 5757 5758 5759 5761 5761 5762 5762 5763 5763 5763 5763 5763 5763 5763 5763 5763 5763 5763 5763 5763 5763 5763 5762 5762 5761 5760 5759 5758 5758 5758 5757 5756 5754 5754 5754 5754 5753 5752 5751 5750 5749 5748 5746 5744 5743 5741 5739 5737 5736 5734
5715 5717 5719 5721 5723 5725 5727 5728 5728 5730 5731 5732 5733 5734 5736 5738 5740 5742 5742 5743 5743 5743 5744 5745 5746 5746 5748 5749 5749 5750 5750 5750 5751 5752 5753 5754 5755 5756 5757 5758 5758 5758 5759 5759 5759 5759 5759 5759 5759 5760 5760 5759 5759 5759 5759 5758 5758 5757 5757 5757 5756 5755 5754 5754 5754 5753 5751 5750 5750 5750 5749 5748 5747 5746 5745 5744 5742 5740 5738 5736 5735 5733 5731 5729 5727
5712 5714 5715 5717 5719 5721 5723 5724 5725 5727 5727 5728 5729 5731 5732 5735 5737 5739 5739 5740 5740 5740 5741 5741 5742 5743 5744 5745 5746 5746 5746 5747 5747 5749 5750 5751 5752 5752 5753 5754 5754 5754 5755 5755 5755 5755 5756 5756 5756 5756 5756 5755 5755 5755 5755 5754 5754 5754 5753 5752 5752 5751 5750 5750 5749 5748 5747 5746 5745 5744 5744 5743 5741 5740 5740 5738 5735 5733 5731 5730 5728 5727 5725 5723 5721
5708 5710 5712 5713 5715 5717 5719 5720 5721 5723 5724 5725 5726 5727 5729 5731 5733 5735 5736 5736 5737 5737 5737 5738 5739 5739 5740 5741 5742 5743 5743 5744 5744 5746 5747 5748 5748 5749 5749 5750 5750 5750 5751 5751 5751 5752 5752 5752 5752 5751 5752 5752 5751 5751 5751 5750 5750 5749 5749 5748 5747 5746 5746 5745 5744 5743 5742 5741 5740 5739 5739 5738 5735 5734 5735 5732 5729 5727 5726 5724 5722 5720 5718 5717 5714
5705 5707 5708 5710 5711 5713 5715 5716 5717 5719 5721 5722 5723 5724 5726 5728 5730 5731 5732 5733 5733 5734 5734 5735 5735 5736 5737 5738 5739 5739 5740 5741 5741 5742 5743 5744 5745 5746 5746 5746 5746 5746 5747 5747 5747 5747 5747 5747 5747 5747 5747 5747 5748 5747 5746 5746 5745 5745 5744 5743 5743 5742 5741 5740 5740 5738 5737 5736 5735 5734 5734 5733 5730 5729 5730 5727 5724 5723 5720 5718 5716 5714 5711 5708 5706
5701 5702 5704 5705 5708 5710 5712 5713 5714 5715 5717 5718 5719 5720 5722 5724 5726 5728 5729 5729 5729 5730 5731 5732 5732 5733 5734 5735 5735 5736 5737 5738 5738 5739 5739 5740 5741 5742 5742 5742 5742 5742 5742 5742 5742 5743 5743 5742 5742 5742 5743 5743 5743 5742 5742 5741 5741 5740 5739 5739 5738 5737 5736 5735 5735 5733 5732 5731 5730 5729 5728 5728 5725 5724 5724 5721 5719 5717 5714 5711 5708 5706 5702 5700 5697
5697 5698 5699 5701 5704 5706 5708 5709 5711 5711 5713 5715 5715 5716 5718 5720 5721 5723 5725 5725 5726 5726 5728 5729 5729 5729 5730 5731 5732 5733 5733 5734 5735 5735 5736 5736 5737 5738 5738 5738 5738 5737 5738 5738 5738 5738 5738 5737 5737 5737 5737 5737 5737 5737 5736 5736 5736 5735 5734 5734 5733 5733 5731 5730 5729 5728 5726 5725 5723 5722 5721 5720 5718 5717 5716 5714 5712 5710 5707 5703 5701 5697 5694 5691 5689
5693 5696 5697 5698 5700 5702 5704 5706 5707 5708 5709 5710 5711 5713 5714 5715 5716 5718 5720 5721 5721 5722 5724 5725 5725 5725 5726 5726 5728 5729 5729 5730 5730 5731 5732 5732 5732 5733 5733 5733 5733 5733 5733 5733 5733 5733 5733 5733 5732 5732 5731 5731 5731 5731 5731 5730 5730 5730 5729 5728 5728 5727 5725 5724 5723 5721 5720 5718 5716 5714 5712 5712 5710 5708 5707 5706 5705 5703 5699 5696 5693 5689 5685 5683 5680
5689 5692 5694 5694 5696 5698 5700 5701 5703 5704 5705 5706 5707 5708 5710 5711 5712 5713 5715 5716 5717 5718 5719 5720 5721 5721 5721 5722 5723 5724 5725 5725 5726 5726 5727 5727 5728 5728 5728 5728 5728 5728 5728 5728 5728 5728 5728 5728 5727 5727 5726 5726 5726 5726 5726 5725 5724 5724 5723 5722 5721 5719 5718 5717 5715 5714 5713 5710 5707 5706 5704 5703 5702 5699 5697 5696 5696 5696 5693 5687 5684 5681 5677 5674 5671